Location: Unspecified
(0.0000°N, 0.0000°E)
Time: 22:26:21
(UTC+01:00)

JASON 3 - Pass Details

Date: 04 October 2020
Orbit: 1332 x 1343 km, 66.0° (Epoch: 27 October)

Event Time Altitude Azimuth Distance (km) Brightness Sun altitude
Rises 22:19:17 0° 335° (NNW) 4,344 ? -37.5°
Reaches altitude 10° 22:22:07 10° 333° (NNW) 3,372 ? -38.3°
Enters shadow 22:27:44 48° 317° (NW) 1,697 ? -39.6°
